DW9443 Weather Reports


Display with metric or nautical units.
time (UTC)temp
F
wind
direction
speed
MPH
gust
MPH
rain 1hr
in
rain 24hr
in
rain mn
in
humidity
%
barometer
mb
20180820205032 0 0.0 0.0 0.00 0.00 0.00 1016.5
20180820203529 0 0.0 0.0 0.00 0.00 0.00 1016.6
20180820202027 0 0.0 0.0 0.00 0.00 0.00 1016.7
20180820200525 0 0.0 0.0 0.00 0.00 0.00 1016.6
20180820195015 0 0.0 0.0 0.00 0.00 0.00 1016.8
20180820193512 0 0.0 0.0 0.00 0.00 0.00 1017.0
20180820192007 0 0.0 0.0 0.00 0.00 0.00 1017.1
20180820190503 0 0.0 0.0 0.00 0.00 0.00 1017.3
20180820184958 0 0.0 0.0 0.00 0.00 0.00 1017.4
20180820183454 0 0.0 0.0 0.00 0.00 0.00 1017.3
20180820181950 0 0.0 0.0 0.00 0.00 0.00 1017.5
20180820180448 0 0.0 0.0 0.00 0.00 0.00 1017.2
20180820174941 0 0.0 0.0 0.00 0.00 0.00 1017.4
20180820173436 0 0.0 0.0 0.00 0.00 0.00 1017.6
20180820171932 0 0.0 0.0 0.00 0.00 0.00 1017.7
20180820170431 0 0.0 0.0 0.00 0.00 0.00 1017.9
20180820164923 0 0.0 0.0 0.00 0.00 0.00 1017.8
20180820163419 54 92 0.0 0.0 0.00 0.00 0.00 89 1017.9
20180820161921 53 92 1.0 0.0 0.00 0.00 0.00 90 1018.0
20180820160418 53 41 0.0 0.0 0.00 0.00 0.00 89 1017.8
20180820154921 53 325 0.0 0.0 0.00 0.00 0.00 88 1017.7
20180820153419 53 326 0.0 0.0 0.00 0.00 0.00 86 1017.8
20180820151919 53 223 1.0 0.0 0.00 0.00 0.00 88 1017.6
20180820150415 53 355 1.0 0.0 0.00 0.00 0.00 88 1017.9
20180820144912 53 355 2.0 0.0 0.00 0.00 0.00 86 1018.1
20180820143411 52 338 3.0 0.0 0.00 0.00 0.00 88 1018.2
20180820141913 52 338 2.0 0.0 0.00 0.00 0.00 87 1018.5
20180820140411 54 339 4.0 0.0 0.00 0.00 0.00 84 1018.3
20180820134913 53 360 5.0 0.0 0.00 0.00 0.00 85 1018.6
20180820133412 52 9 4.0 0.0 0.00 0.00 0.00 87 1018.9
20180820131908 53 350 5.0 0.0 0.00 0.00 0.00 87 1018.6
20180820130406 52 20 1.0 0.0 0.00 0.00 0.00 88 1018.6
20180820124904 52 24 2.0 0.0 0.00 0.00 0.00 88 1018.5
20180820123402 53 54 4.0 0.0 0.00 0.00 0.00 87 1018.7
20180820121900 54 115 1.0 0.0 0.00 0.00 0.00 80 1018.7
20180820120401 54 109 2.0 0.0 0.00 0.00 0.00 80 1018.9
20180820114859 54 121 0.0 0.0 0.00 0.00 0.00 81 1018.8
20180820113357 55 121 2.0 0.0 0.00 0.00 0.00 79 1018.6
20180820111857 55 127 2.0 0.0 0.00 0.00 0.00 78 1018.9
20180820110356 55 104 7.0 0.0 0.00 0.00 0.00 77 1018.8
20180820104854 56 95 8.0 0.0 0.00 0.00 0.00 76 1018.9
20180820103354 55 101 3.0 0.0 0.00 0.00 0.00 79 1019.0
20180820101853 55 101 4.0 0.0 0.00 0.00 0.00 79 1019.0
20180820100357 55 107 7.0 0.0 0.00 0.00 0.00 78 1019.0
20180820094855 55 103 8.0 0.0 0.00 0.00 0.00 77 1019.1
20180820093353 55 106 7.0 0.0 0.00 0.00 0.00 78 1018.9
20180820091849 55 138 5.0 0.0 0.00 0.00 0.00 77 1019.0
20180820090347 54 129 2.0 0.0 0.00 0.00 0.00 81 1018.9
20180820084846 54 345 0.0 0.0 0.00 0.00 0.00 85 1019.1
20180820083348 54 74 1.0 0.0 0.00 0.00 0.00 80 1018.8
20180820081845 54 360 2.0 0.0 0.00 0.00 0.00 84 1018.6
20180820080339 54 93 1.0 0.0 0.00 0.00 0.00 80 1018.9
20180820074840 55 109 3.0 0.0 0.00 0.00 0.19 79 1018.8
20180820073339 55 119 6.0 0.0 0.00 0.00 0.19 78 1019.0
20180820071840 55 115 5.0 0.0 0.00 0.00 0.19 78 1019.0
20180820070337 55 111 4.0 0.0 0.00 0.00 0.19 79 1019.1
20180820064837 54 107 1.0 0.0 0.00 0.00 0.19 79 1019.0
20180820063337 54 107 3.0 0.0 0.00 0.00 0.19 81 1018.9
20180820061836 53 103 2.0 0.0 0.00 0.00 0.19 83 1019.1
20180820060334 54 112 2.0 0.0 0.00 0.00 0.19 83 1019.1
20180820054837 54 117 4.0 0.0 0.00 0.00 0.19 82 1019.4
20180820053335 55 131 3.0 0.0 0.00 0.00 0.19 81 1019.2
20180820051833 55 103 3.0 0.0 0.00 0.00 0.19 82 1019.1
20180820050333 53 120 1.0 0.0 0.00 0.00 0.19 87 1018.8
20180820044834 52 132 1.0 0.0 0.00 0.00 0.19 94 1019.1
20180820043333 52 159 0.0 0.0 0.00 0.00 0.19 93 1019.3
20180820041834 54 159 2.0 0.0 0.00 0.00 0.19 90 1019.1
20180820040335 54 113 3.0 0.0 0.00 0.00 0.19 87 1018.8
20180820034830 55 199 3.0 0.0 0.00 0.00 0.19 89 1018.9
20180820033331 53 104 3.0 0.0 0.00 0.00 0.19 92 1019.1
20180820031828 55 117 1.0 0.0 0.00 0.00 0.19 86 1019.2
20180820030327 54 94 2.0 0.0 0.00 0.00 0.19 92 1019.5
20180820024829 52 94 2.0 0.0 0.00 0.00 0.19 96 1019.4
20180820023324 51 333 0.0 0.0 0.00 0.00 0.19 96 1019.9
20180820021823 51 319 1.0 0.0 0.00 0.00 0.19 96 1020.4
20180820020325 50 298 4.0 0.0 0.00 0.00 0.19 96 1020.4
20180820014824 50 322 4.0 0.0 0.00 0.00 0.19 96 1020.3
20180820013322 50 281 5.0 0.0 0.00 0.00 0.19 96 1019.7
20180820011824 50 295 8.0 0.0 0.00 0.00 0.19 96 1020.5
20180820010319 50 311 7.0 0.0 0.00 0.00 0.19 96 1019.9
20180820004818 50 360 5.0 0.0 0.00 0.00 0.19 96 1019.9
20180820003314 50 290 4.0 0.0 0.00 0.00 0.19 96 1020.4
20180820001812 50 286 1.0 0.0 0.00 0.00 0.19 96 1021.0
20180820000315 50 285 0.0 0.0 0.00 0.00 0.19 96 1021.3
20180819234811 49 286 1.0 0.0 0.00 0.00 0.18 95 1021.3
20180819233310 49 302 0.0 0.0 0.00 0.00 0.17 95 1020.9
20180819231810 49 302 1.0 0.0 0.00 0.00 0.16 95 1020.9
20180819230308 49 295 3.0 0.0 0.00 0.00 0.15 95 1021.2
20180819224808 49 315 4.0 0.0 0.00 0.00 0.14 95 1021.3
20180819223304 49 301 1.0 0.0 0.00 0.00 0.13 94 1021.5
20180819221806 49 304 1.0 0.0 0.00 0.00 0.11 94 1021.7
20180819220302 49 304 0.0 0.0 0.00 0.00 0.09 93 1022.1
20180819214801 49 304 0.0 0.0 0.00 0.00 0.06 93 1022.0
20180819213300 49 305 4.0 0.0 0.00 0.00 0.05 92 1021.8
20180819211757 49 300 1.0 0.0 0.00 0.00 0.03 91 1021.6
20180819210256 50 306 4.0 0.0 0.00 0.00 0.02 89 1021.6